Tracking 17556 objects as of 5-February-2016
HD Live streaming from Space Station
objects crossing your sky now

IRIDIUM 33 DEB

Track IRIDIUM 33 DEB now!
10-day predictions


NORAD ID: 33869
Int'l Code: 1997-051AN
Perigee: 717.1 km
Apogee: 841.8 km
Inclination: 86.4 °
Period: 100.3 minutes
Semi major axis: 7150 km
RCS: 0.08 m2 (small)
Launch date: September 14, 1997
Source: United States (US)
Launch site: TYURATAM MISSILE AND SPACE COMPLEX (TTMTR)

Note: This is SATELLITE DEBRIS
Your satellite tracking list
Your tracking list is empty





NASA's NSSDC Master Catalog

Two Line Element Set (TLE):
1 33869U 97051AN  16036.51962113  .00005804  00000-0  19140-2 0  9999
2 33869  86.3730 151.7712 0087187 199.3059 160.4830 14.3582135036215
Source of the keplerian elements: AFSPC

N2YO: 302